PTD-3 (TYVAK-0125) (52734 NORAD) Tracking and Keplerian Element Data
This shows tracking and keplerian element data for the satellite.
Feedback or suggestion? Click here.
Element | Value |
Catalog | 52734 |
Name | PTD-3 (TYVAK-0125) |
Epoch Orbit | 1248 |
Epoch Day | 228.32370747 |
Epoch Year | 2022 |
RAAN | 342.1181 |
Inclination | 97.523 |
Eccentricity | 0.0008134 |
Argument of Perigee | 343.3019 |
Mean Anonmoly | 16.7943 |
Mean Motion | 15.13110064 |
Decay Rate | 8.674E-05 |
L1 | 1 52734U 22057C 22228.32370747 .00008674 00000+0 49294-3 0 9991 |
L2 | 2 52734 97.5230 342.1181 0008134 343.3019 16.7943 15.13110064 12485 |
Live tracking and technical data element details for PTD-3 (TYVAK-0125) (NORAD 52734). PTD-3 (TYVAK-0125) can be tracked NOW for your location showing map with azimuth and elevation plus other details from your city location.
Track the satellite on the map from your city or location and see movement details for azimuth, elevation, latitude, longitude, range, height, and movement on the map or in text.
IsCatalogInMostPopularTable: catalog: 52734, numindb: 10
Update: records affected: 1
GetName: 52734 PTD-3 (TYVAK-0125)
Hit Count: updated at: Thu, 18 Aug 2022 20:28:10 GMT